Location: Unspecified
(42.7170°S, 0.0000°E)
Time: 12:58:19
(UTC+00:00)

N. Korean satellite - Pass Details

Date: 23 May 2019
Orbit: 455 x 510 km, 97.2° (Epoch: 19 June)

Event Time Altitude Azimuth Distance (km) Brightness Sun altitude
Exits shadow 18:45:55 - 187° (S) 1,781 9.4 -22.7°
Reaches altitude 10° 18:46:04 10° 188° (S) 1,725 9.3 -22.7°
Maximum altitude 18:49:23 31° 251° (WSW) 906 8.4 -23.3°
Drops below altitude 10° 18:52:42 10° 314° (NW) 1,726 10.0 -23.9°
Sets 18:54:56 0° 324° (NW) 2,608 10.9 -24.3°
